Location: *
(46.1833°N, 22.7667°E)
Time: 05:54:53
(UTC+00:00)

Cosmos 1023 Rocket - Pass Details

Date: 17 September 2019
Orbit: 737 x 772 km, 74.1° (Epoch: 20 October)

Event Time Altitude Azimuth Distance (km) Brightness Sun altitude
Rises 18:25:53 0° 341° (NNW) 3,219 8.4 -19.0°
Reaches altitude 10° 18:28:19 10° 345° (NNW) 2,284 7.5 -19.4°
Maximum altitude 18:33:26 60° 65° (ENE) 857 4.5 -20.2°
Enters shadow 18:34:47 44° 120° (ESE) 1,025 4.7 -20.4°
